Location: Lake Lucerne
(45.5315°N, 88.8489°W)
Time: 01:47:48
(UTC-05:00)

Envisat - Visible Passes

Search period start: 25 May 2017 00:00
Search period end: 04 June 2017 00:00
Orbit: 764 x 766 km, 98.2° (Epoch: 24 May)

Date Brightness Start Highest point End Pass type
(mag) Time Alt. Az. Time Alt. Az. Time Alt. Az.
25 May 5.1 21:59:09 10° SW 22:03:08 23° W 22:07:09 10° NW visible
26 May 3.9 21:21:17 10° S 21:26:11 48° W 21:31:07 10° NNW visible
27 May 5.6 22:26:38 10° WSW 22:29:04 13° W 22:31:31 10° WNW visible
28 May 4.8 21:47:36 10° SSW 21:51:58 28° W 21:56:21 10° NW visible
29 May 3.6 21:10:03 10° S 21:15:04 60° W 21:20:07 10° NNW visible
30 May 5.5 22:14:36 10° SW 22:17:51 17° W 22:21:07 10° NW visible
31 May 4.5 21:36:11 10° SSW 21:40:48 35° W 21:45:28 10° NNW visible
02 Jun 5.2 22:02:51 10° SW 22:06:39 21° W 22:10:29 10° NW visible
03 Jun 4.1 21:24:50 10° S 21:29:40 44° W 21:34:32 10° NNW visible
